Year,Month,Day,Hour,Minute,Value (Times are PST for temperature in C)
2015,07,07,00,00,20.50
2015,07,07,00,01,20.50
2015,07,07,00,02,20.50
2015,07,07,00,03,20.50
2015,07,07,00,04,20.40
2015,07,07,00,05,20.40
2015,07,07,00,06,20.40
2015,07,07,00,07,20.30
2015,07,07,00,08,20.30
2015,07,07,00,09,20.30
2015,07,07,00,10,20.30
2015,07,07,00,11,20.20
2015,07,07,00,12,20.20
2015,07,07,00,13,20.20
2015,07,07,00,14,20.10
2015,07,07,00,15,20.10
2015,07,07,00,16,20.10
2015,07,07,00,17,20.10
2015,07,07,00,18,20.10
2015,07,07,00,19,20.00
2015,07,07,00,20,20.00
2015,07,07,00,21,20.00
2015,07,07,00,22,20.00
2015,07,07,00,23,20.00
2015,07,07,00,24,19.90
2015,07,07,00,25,19.90
2015,07,07,00,26,19.90
2015,07,07,00,27,19.90
2015,07,07,00,28,19.90
2015,07,07,00,29,19.80
2015,07,07,00,30,19.80
2015,07,07,00,31,19.80
2015,07,07,00,32,19.80
2015,07,07,00,33,19.70
2015,07,07,00,34,19.70
2015,07,07,00,35,19.70
2015,07,07,00,36,19.70
2015,07,07,00,37,19.70
2015,07,07,00,38,19.70
2015,07,07,00,39,19.70
2015,07,07,00,40,19.70
2015,07,07,00,41,19.70
2015,07,07,00,42,19.80
2015,07,07,00,43,19.80
2015,07,07,00,44,19.80
2015,07,07,00,45,19.90
2015,07,07,00,46,19.90
2015,07,07,00,47,19.90
2015,07,07,00,48,19.90
2015,07,07,00,49,19.90
2015,07,07,00,50,19.90
2015,07,07,00,51,19.90
2015,07,07,00,52,19.90
2015,07,07,00,53,19.90
2015,07,07,00,54,19.90
2015,07,07,00,55,20.00
2015,07,07,00,56,20.00
2015,07,07,00,57,20.00
2015,07,07,00,58,20.00
2015,07,07,00,59,19.90
2015,07,07,01,00,19.90
2015,07,07,01,01,19.90
2015,07,07,01,02,19.80
2015,07,07,01,03,19.80
2015,07,07,01,04,19.80
2015,07,07,01,05,19.80
2015,07,07,01,06,19.80
2015,07,07,01,07,19.80
2015,07,07,01,08,19.80
2015,07,07,01,09,19.80
2015,07,07,01,10,19.80
2015,07,07,01,11,19.80
2015,07,07,01,12,19.80
2015,07,07,01,13,19.80
2015,07,07,01,14,19.80
2015,07,07,01,15,19.80
2015,07,07,01,16,19.80
2015,07,07,01,17,19.80
2015,07,07,01,18,19.80
2015,07,07,01,19,19.80
2015,07,07,01,20,19.80
2015,07,07,01,21,19.80
2015,07,07,01,22,19.80
2015,07,07,01,23,19.80
2015,07,07,01,24,19.80
2015,07,07,01,25,19.90
2015,07,07,01,26,19.90
2015,07,07,01,27,19.90
2015,07,07,01,28,19.90
2015,07,07,01,29,19.90
2015,07,07,01,30,19.90
2015,07,07,01,31,19.90
2015,07,07,01,32,19.90
2015,07,07,01,33,19.90
2015,07,07,01,34,19.90
2015,07,07,01,35,19.80
2015,07,07,01,36,19.80
2015,07,07,01,37,19.70
2015,07,07,01,38,19.70
2015,07,07,01,39,19.60
2015,07,07,01,40,19.50
2015,07,07,01,41,19.40
2015,07,07,01,42,19.40
2015,07,07,01,43,19.40
2015,07,07,01,44,19.30
2015,07,07,01,45,19.30
2015,07,07,01,46,19.30
2015,07,07,01,47,19.40
2015,07,07,01,48,19.40
2015,07,07,01,49,19.40
2015,07,07,01,50,19.40
2015,07,07,01,51,19.40
2015,07,07,01,52,19.40
2015,07,07,01,53,19.40
2015,07,07,01,54,19.40
2015,07,07,01,55,19.40
2015,07,07,01,56,19.30
2015,07,07,01,57,19.30
2015,07,07,01,58,19.30
2015,07,07,01,59,19.30
2015,07,07,02,00,19.20
2015,07,07,02,01,19.20
2015,07,07,02,02,19.20
2015,07,07,02,03,19.20
2015,07,07,02,04,19.10
2015,07,07,02,05,19.10
2015,07,07,02,06,19.00
2015,07,07,02,07,19.00
2015,07,07,02,08,18.90
2015,07,07,02,09,18.90
2015,07,07,02,10,18.80
2015,07,07,02,11,18.80
2015,07,07,02,12,18.70
2015,07,07,02,13,18.70
2015,07,07,02,14,18.70
2015,07,07,02,15,18.70
2015,07,07,02,16,18.60
2015,07,07,02,17,18.60
2015,07,07,02,18,18.60
2015,07,07,02,19,18.60
2015,07,07,02,20,18.60
2015,07,07,02,21,18.60
2015,07,07,02,22,18.60
2015,07,07,02,23,18.60
2015,07,07,02,24,18.60
2015,07,07,02,25,18.60
2015,07,07,02,26,18.60
2015,07,07,02,27,18.60
2015,07,07,02,28,18.60
2015,07,07,02,29,18.60
2015,07,07,02,30,18.60
2015,07,07,02,31,18.60
2015,07,07,02,32,18.60
2015,07,07,02,33,18.60
2015,07,07,02,34,18.60
2015,07,07,02,35,18.60
2015,07,07,02,36,18.60
2015,07,07,02,37,18.60
2015,07,07,02,38,18.70
2015,07,07,02,39,18.70
2015,07,07,02,40,18.70
2015,07,07,02,41,18.60
2015,07,07,02,42,18.60
2015,07,07,02,43,18.60
2015,07,07,02,44,18.60
2015,07,07,02,45,18.60
2015,07,07,02,46,18.60
2015,07,07,02,47,18.50
2015,07,07,02,48,18.50
2015,07,07,02,49,18.50
2015,07,07,02,50,18.40
2015,07,07,02,51,18.40
2015,07,07,02,52,18.40
2015,07,07,02,53,18.40
2015,07,07,02,54,18.40
2015,07,07,02,55,18.40
2015,07,07,02,56,18.30
2015,07,07,02,57,18.30
2015,07,07,02,58,18.30
2015,07,07,02,59,18.30
2015,07,07,03,00,18.40
2015,07,07,03,01,18.40
2015,07,07,03,02,18.50
2015,07,07,03,03,18.60
2015,07,07,03,04,18.60
2015,07,07,03,05,18.70
2015,07,07,03,06,18.70
2015,07,07,03,07,18.70
2015,07,07,03,08,18.80
2015,07,07,03,09,18.80
2015,07,07,03,10,18.80
2015,07,07,03,11,18.80
2015,07,07,03,12,18.80
2015,07,07,03,13,18.80
2015,07,07,03,14,18.70
2015,07,07,03,15,18.70
2015,07,07,03,16,18.70
2015,07,07,03,17,18.60
2015,07,07,03,18,18.60
2015,07,07,03,19,18.50
2015,07,07,03,20,18.50
2015,07,07,03,21,18.40
2015,07,07,03,22,18.40
2015,07,07,03,23,18.40
2015,07,07,03,24,18.30
2015,07,07,03,25,18.30
2015,07,07,03,26,18.30
2015,07,07,03,27,18.30
2015,07,07,03,28,18.30
2015,07,07,03,29,18.30
2015,07,07,03,30,18.30
2015,07,07,03,31,18.30
2015,07,07,03,32,18.30
2015,07,07,03,33,18.30
2015,07,07,03,34,18.30
2015,07,07,03,35,18.40
2015,07,07,03,36,18.40
2015,07,07,03,37,18.50
2015,07,07,03,38,18.50
2015,07,07,03,39,18.50
2015,07,07,03,40,18.60
2015,07,07,03,41,18.60
2015,07,07,03,42,18.60
2015,07,07,03,43,18.60
2015,07,07,03,44,18.70
2015,07,07,03,45,18.70
2015,07,07,03,46,18.70
2015,07,07,03,47,18.70
2015,07,07,03,48,18.80
2015,07,07,03,49,18.80
2015,07,07,03,50,18.80
2015,07,07,03,51,18.80
2015,07,07,03,52,18.80
2015,07,07,03,53,18.80
2015,07,07,03,54,18.70
2015,07,07,03,55,18.70
2015,07,07,03,56,18.60
2015,07,07,03,57,18.50
2015,07,07,03,58,18.40
2015,07,07,03,59,18.40
2015,07,07,04,00,18.40
2015,07,07,04,01,18.40
2015,07,07,04,02,18.30
2015,07,07,04,03,18.30
2015,07,07,04,04,18.30
2015,07,07,04,05,18.30
2015,07,07,04,06,18.30
2015,07,07,04,07,18.30
2015,07,07,04,08,18.30
2015,07,07,04,09,18.30
2015,07,07,04,10,18.30
2015,07,07,04,11,18.30
2015,07,07,04,12,18.30
2015,07,07,04,13,18.40
2015,07,07,04,14,18.40
2015,07,07,04,15,18.40
2015,07,07,04,16,18.30
2015,07,07,04,17,18.30
2015,07,07,04,18,18.30
2015,07,07,04,19,18.20
2015,07,07,04,20,18.20
2015,07,07,04,21,18.20
2015,07,07,04,22,18.20
2015,07,07,04,23,18.20
2015,07,07,04,24,18.20
2015,07,07,04,25,18.20
2015,07,07,04,26,18.20
2015,07,07,04,27,18.20
2015,07,07,04,28,18.20
2015,07,07,04,29,18.20
2015,07,07,04,30,18.20
2015,07,07,04,31,18.20
2015,07,07,04,32,18.30
2015,07,07,04,33,18.30
2015,07,07,04,34,18.30
2015,07,07,04,35,18.30
2015,07,07,04,36,18.30
2015,07,07,04,37,18.30
2015,07,07,04,38,18.30
2015,07,07,04,39,18.30
2015,07,07,04,40,18.30
2015,07,07,04,41,18.30
2015,07,07,04,42,18.30
2015,07,07,04,43,18.30
2015,07,07,04,44,18.30
2015,07,07,04,45,18.30
2015,07,07,04,46,18.40
2015,07,07,04,47,18.40
2015,07,07,04,48,18.50
2015,07,07,04,49,18.60
2015,07,07,04,50,18.60
2015,07,07,04,51,18.60
2015,07,07,04,52,18.70
2015,07,07,04,53,18.70
2015,07,07,04,54,18.70
2015,07,07,04,55,18.70
2015,07,07,04,56,18.70
2015,07,07,04,57,18.70
2015,07,07,04,58,18.70
2015,07,07,04,59,18.60
2015,07,07,05,00,18.60
2015,07,07,05,01,18.60
2015,07,07,05,02,18.50
2015,07,07,05,03,18.50
2015,07,07,05,04,18.50
2015,07,07,05,05,18.40
2015,07,07,05,06,18.40
2015,07,07,05,07,18.40
2015,07,07,05,08,18.40
2015,07,07,05,09,18.40
2015,07,07,05,10,18.30
2015,07,07,05,11,18.30
2015,07,07,05,12,18.30
2015,07,07,05,13,18.20
2015,07,07,05,14,18.20
2015,07,07,05,15,18.20
2015,07,07,05,16,18.20
2015,07,07,05,17,18.20
2015,07,07,05,18,18.20
2015,07,07,05,19,18.20
2015,07,07,05,20,18.20
2015,07,07,05,21,18.10
2015,07,07,05,22,18.10
2015,07,07,05,23,18.10
2015,07,07,05,24,18.00
2015,07,07,05,25,18.00
2015,07,07,05,26,18.00
2015,07,07,05,27,17.90
2015,07,07,05,28,17.90
2015,07,07,05,29,17.90
2015,07,07,05,30,17.90
2015,07,07,05,31,17.90
2015,07,07,05,32,17.90
2015,07,07,05,33,17.90
2015,07,07,05,34,17.90
2015,07,07,05,35,17.90
2015,07,07,05,36,17.90
2015,07,07,05,37,17.80
2015,07,07,05,38,17.80
2015,07,07,05,39,17.70
2015,07,07,05,40,17.60
2015,07,07,05,41,17.60
2015,07,07,05,42,17.50
2015,07,07,05,43,17.50
2015,07,07,05,44,17.40
2015,07,07,05,45,17.40
2015,07,07,05,46,17.30
2015,07,07,05,47,17.30
2015,07,07,05,48,17.30
2015,07,07,05,49,17.40
2015,07,07,05,50,17.30
2015,07,07,05,51,17.30
2015,07,07,05,52,17.30
2015,07,07,05,53,17.30
2015,07,07,05,54,17.30
2015,07,07,05,55,17.30
2015,07,07,05,56,17.20
2015,07,07,05,57,17.20
2015,07,07,05,58,17.10
2015,07,07,05,59,17.10
2015,07,07,06,00,17.10
2015,07,07,06,01,17.10
2015,07,07,06,02,17.00
2015,07,07,06,03,17.00
2015,07,07,06,04,16.90
2015,07,07,06,05,16.90
2015,07,07,06,06,16.90
2015,07,07,06,07,16.90
2015,07,07,06,08,17.00
2015,07,07,06,09,17.00
2015,07,07,06,10,17.00
2015,07,07,06,11,17.00
2015,07,07,06,12,17.10
2015,07,07,06,13,17.10
2015,07,07,06,14,17.10
2015,07,07,06,15,17.10
2015,07,07,06,16,17.20
2015,07,07,06,17,17.20
2015,07,07,06,18,17.30
2015,07,07,06,19,17.30
2015,07,07,06,20,17.30
2015,07,07,06,21,17.30
2015,07,07,06,22,17.20
2015,07,07,06,23,17.20
2015,07,07,06,24,17.20
2015,07,07,06,25,17.30
2015,07,07,06,26,17.30
2015,07,07,06,27,17.30
2015,07,07,06,28,17.20
2015,07,07,06,29,17.20
2015,07,07,06,30,17.20
2015,07,07,06,31,17.20
2015,07,07,06,32,17.20
2015,07,07,06,33,17.20
2015,07,07,06,34,17.20
2015,07,07,06,35,17.20
2015,07,07,06,36,17.20
2015,07,07,06,37,17.20
2015,07,07,06,38,17.20
2015,07,07,06,39,17.20
2015,07,07,06,40,17.20
2015,07,07,06,41,17.20
2015,07,07,06,42,17.30
2015,07,07,06,43,17.30
2015,07,07,06,44,17.30
2015,07,07,06,45,17.40
2015,07,07,06,46,17.40
2015,07,07,06,47,17.40
2015,07,07,06,48,17.50
2015,07,07,06,49,17.50
2015,07,07,06,50,17.50
2015,07,07,06,51,17.60
2015,07,07,06,52,17.60
2015,07,07,06,53,17.70
2015,07,07,06,54,17.70
2015,07,07,06,55,17.70
2015,07,07,06,56,17.70
2015,07,07,06,57,17.70
2015,07,07,06,58,17.80
2015,07,07,06,59,17.80
2015,07,07,07,00,17.80
2015,07,07,07,01,17.80
2015,07,07,07,02,17.90
2015,07,07,07,03,17.90
2015,07,07,07,04,17.90
2015,07,07,07,05,18.00
2015,07,07,07,06,18.00
2015,07,07,07,07,18.10
2015,07,07,07,08,18.10
2015,07,07,07,09,18.20
2015,07,07,07,10,18.20
2015,07,07,07,11,18.20
2015,07,07,07,12,18.20
2015,07,07,07,13,18.30
2015,07,07,07,14,18.30
2015,07,07,07,15,18.30
2015,07,07,07,16,18.30
2015,07,07,07,17,18.30
2015,07,07,07,18,18.30
2015,07,07,07,19,18.30
2015,07,07,07,20,18.40
2015,07,07,07,21,18.40
2015,07,07,07,22,18.40
2015,07,07,07,23,18.50
2015,07,07,07,24,18.50
2015,07,07,07,25,18.60
2015,07,07,07,26,18.60
2015,07,07,07,27,18.70
2015,07,07,07,28,18.70
2015,07,07,07,29,18.80
2015,07,07,07,30,18.80
2015,07,07,07,31,18.90
2015,07,07,07,32,18.90
2015,07,07,07,33,18.90
2015,07,07,07,34,19.00
2015,07,07,07,35,19.00
2015,07,07,07,36,19.10
2015,07,07,07,37,19.10
2015,07,07,07,38,19.20
2015,07,07,07,39,19.20
2015,07,07,07,40,19.30
2015,07,07,07,41,19.30
2015,07,07,07,42,19.40
2015,07,07,07,43,19.40
2015,07,07,07,44,19.40
2015,07,07,07,45,19.50
2015,07,07,07,46,19.50
2015,07,07,07,47,19.50
2015,07,07,07,48,19.50
2015,07,07,07,49,19.50
2015,07,07,07,50,19.50
2015,07,07,07,51,19.50
2015,07,07,07,52,19.50
2015,07,07,07,53,19.50
2015,07,07,07,54,19.50
2015,07,07,07,55,19.50
2015,07,07,07,56,19.50
2015,07,07,07,57,19.50
2015,07,07,07,58,19.50
2015,07,07,07,59,19.50
2015,07,07,08,00,19.50
2015,07,07,08,01,19.50
2015,07,07,08,02,19.40
2015,07,07,08,03,19.40
2015,07,07,08,04,19.30
2015,07,07,08,05,19.30
2015,07,07,08,06,19.30
2015,07,07,08,07,19.30
2015,07,07,08,08,19.20
2015,07,07,08,09,19.20
2015,07,07,08,10,19.20
2015,07,07,08,11,19.20
2015,07,07,08,12,19.10
2015,07,07,08,13,19.10
2015,07,07,08,14,19.10
2015,07,07,08,15,19.10
2015,07,07,08,16,19.10
2015,07,07,08,17,19.10
2015,07,07,08,18,19.10
2015,07,07,08,19,19.10
2015,07,07,08,20,19.10
2015,07,07,08,21,19.10
2015,07,07,08,22,19.10
2015,07,07,08,23,19.10
2015,07,07,08,24,19.00
2015,07,07,08,25,19.00
2015,07,07,08,26,19.00
2015,07,07,08,27,19.00
2015,07,07,08,28,19.00
2015,07,07,08,29,19.00
2015,07,07,08,30,19.00
2015,07,07,08,31,19.00
2015,07,07,08,32,19.00
2015,07,07,08,33,19.10
2015,07,07,08,34,19.10
2015,07,07,08,35,19.10
2015,07,07,08,36,19.00
2015,07,07,08,37,19.00
2015,07,07,08,38,19.00
2015,07,07,08,39,19.00
2015,07,07,08,40,19.10
2015,07,07,08,41,19.10
2015,07,07,08,42,19.10
2015,07,07,08,43,19.00
2015,07,07,08,44,18.90
2015,07,07,08,45,18.80
2015,07,07,08,46,18.80
2015,07,07,08,47,18.70
2015,07,07,08,48,18.70
2015,07,07,08,49,18.70
2015,07,07,08,50,18.60
2015,07,07,08,51,18.60
2015,07,07,08,52,18.60
2015,07,07,08,53,18.60
2015,07,07,08,54,18.60
2015,07,07,08,55,18.60
2015,07,07,08,56,18.70
2015,07,07,08,57,18.70
2015,07,07,08,58,18.70
2015,07,07,08,59,18.80
2015,07,07,09,00,18.80
2015,07,07,09,01,18.80
2015,07,07,09,02,18.80
2015,07,07,09,03,18.80
2015,07,07,09,04,18.70
2015,07,07,09,05,18.60
2015,07,07,09,06,18.60
2015,07,07,09,07,18.50
2015,07,07,09,08,18.50
2015,07,07,09,09,18.40
2015,07,07,09,10,18.40
2015,07,07,09,11,18.40
2015,07,07,09,12,18.40
2015,07,07,09,13,18.30
2015,07,07,09,14,18.30
2015,07,07,09,15,18.30
2015,07,07,09,16,18.30
2015,07,07,09,17,18.30
2015,07,07,09,18,18.40
2015,07,07,09,19,18.40
2015,07,07,09,20,18.40
2015,07,07,09,21,18.40
2015,07,07,09,22,18.40
2015,07,07,09,23,18.40
2015,07,07,09,24,18.40
2015,07,07,09,25,18.50
2015,07,07,09,26,18.50
2015,07,07,09,27,18.60
2015,07,07,09,28,18.70
2015,07,07,09,29,18.70
2015,07,07,09,30,18.70
2015,07,07,09,31,18.70
2015,07,07,09,32,18.70
2015,07,07,09,33,18.70
2015,07,07,09,34,18.70
2015,07,07,09,35,18.70
2015,07,07,09,36,18.60
2015,07,07,09,37,18.50
2015,07,07,09,38,18.40
2015,07,07,09,39,18.30
2015,07,07,09,40,18.20
2015,07,07,09,41,18.20
2015,07,07,09,42,18.20
2015,07,07,09,43,18.20
2015,07,07,09,44,18.30
2015,07,07,09,45,18.30
2015,07,07,09,46,18.40
2015,07,07,09,47,18.50
2015,07,07,09,48,18.50
2015,07,07,09,49,18.40
2015,07,07,09,50,18.40
2015,07,07,09,51,18.40
2015,07,07,09,52,18.30
2015,07,07,09,53,18.30
2015,07,07,09,54,18.30
2015,07,07,09,55,18.30
2015,07,07,09,56,18.30
2015,07,07,09,57,18.30
2015,07,07,09,58,18.30
2015,07,07,09,59,18.30
2015,07,07,10,00,18.20
2015,07,07,10,01,18.10
2015,07,07,10,02,18.00
2015,07,07,10,03,18.00
2015,07,07,10,04,18.00
2015,07,07,10,05,18.10
2015,07,07,10,06,18.10
2015,07,07,10,07,18.20
2015,07,07,10,08,18.20
2015,07,07,10,09,18.10
2015,07,07,10,10,18.10
2015,07,07,10,11,18.10
2015,07,07,10,12,18.10
2015,07,07,10,13,18.00
2015,07,07,10,14,18.00
2015,07,07,10,15,17.90
2015,07,07,10,16,17.90
2015,07,07,10,17,17.80
2015,07,07,10,18,17.70
2015,07,07,10,19,17.70
2015,07,07,10,20,17.60
2015,07,07,10,21,17.60
2015,07,07,10,22,17.60
2015,07,07,10,23,17.50
2015,07,07,10,24,17.50
2015,07,07,10,25,17.50
2015,07,07,10,26,17.50
2015,07,07,10,27,17.50
2015,07,07,10,28,17.50
2015,07,07,10,29,17.50
2015,07,07,10,30,17.60
2015,07,07,10,31,17.60
2015,07,07,10,32,17.60
2015,07,07,10,33,17.60
2015,07,07,10,34,17.70
2015,07,07,10,35,17.80
2015,07,07,10,36,17.80
2015,07,07,10,37,17.90
2015,07,07,10,38,17.90
2015,07,07,10,39,17.90
2015,07,07,10,40,17.90
2015,07,07,10,41,17.90
2015,07,07,10,42,17.80
2015,07,07,10,43,17.80
2015,07,07,10,44,17.80
2015,07,07,10,45,17.80
2015,07,07,10,46,17.80
2015,07,07,10,47,17.90
2015,07,07,10,48,17.90
2015,07,07,10,49,17.90
2015,07,07,10,50,17.90
2015,07,07,10,51,18.00
2015,07,07,10,52,18.00
2015,07,07,10,53,18.00
2015,07,07,10,54,18.00
2015,07,07,10,55,18.00
2015,07,07,10,56,18.00
2015,07,07,10,57,18.00
2015,07,07,10,58,18.00
2015,07,07,10,59,18.10
2015,07,07,11,00,18.10
2015,07,07,11,01,18.10
2015,07,07,11,02,18.20
2015,07,07,11,03,18.20
2015,07,07,11,04,18.20
2015,07,07,11,05,18.20
2015,07,07,11,06,18.20
2015,07,07,11,07,18.20
2015,07,07,11,08,18.20
2015,07,07,11,09,18.20
2015,07,07,11,10,18.20
2015,07,07,11,11,18.20
2015,07,07,11,12,18.10
2015,07,07,11,13,18.10
2015,07,07,11,14,18.10
2015,07,07,11,15,18.20
2015,07,07,11,16,18.20
2015,07,07,11,17,18.20
2015,07,07,11,18,18.20
2015,07,07,11,19,18.20
2015,07,07,11,20,18.20
2015,07,07,11,21,18.30
2015,07,07,11,22,18.30
2015,07,07,11,23,18.30
2015,07,07,11,24,18.40
2015,07,07,11,25,18.50
2015,07,07,11,26,18.60
2015,07,07,11,27,18.60
2015,07,07,11,28,18.70
2015,07,07,11,29,18.70
2015,07,07,11,30,18.80
2015,07,07,11,31,18.80
2015,07,07,11,32,18.90
2015,07,07,11,33,18.90
2015,07,07,11,34,18.90
2015,07,07,11,35,18.90
2015,07,07,11,36,18.90
2015,07,07,11,37,18.90
2015,07,07,11,38,18.90
2015,07,07,11,39,18.90
2015,07,07,11,40,18.90
2015,07,07,11,41,18.90
2015,07,07,11,42,18.90
2015,07,07,11,43,19.00
2015,07,07,11,44,19.00
2015,07,07,11,45,19.00
2015,07,07,11,46,19.00
2015,07,07,11,47,19.00
2015,07,07,11,48,19.00
2015,07,07,11,49,19.10
2015,07,07,11,50,19.10
2015,07,07,11,51,19.10
2015,07,07,11,52,19.10
2015,07,07,11,53,19.00
2015,07,07,11,54,18.90
2015,07,07,11,55,18.80
2015,07,07,11,56,18.70
2015,07,07,11,57,18.70
2015,07,07,11,58,18.70
2015,07,07,11,59,18.70
2015,07,07,12,00,18.70
2015,07,07,12,01,18.70
2015,07,07,12,02,18.70
2015,07,07,12,03,18.60
2015,07,07,12,04,18.60
2015,07,07,12,05,18.60
2015,07,07,12,06,18.70
2015,07,07,12,07,18.70
2015,07,07,12,08,18.70
2015,07,07,12,09,18.70
2015,07,07,12,10,18.70
2015,07,07,12,11,18.70
2015,07,07,12,12,18.80
2015,07,07,12,13,18.80
2015,07,07,12,14,18.90
2015,07,07,12,15,19.00
2015,07,07,12,16,19.00
2015,07,07,12,17,19.00
2015,07,07,12,18,19.10
2015,07,07,12,19,19.10
2015,07,07,12,20,19.10
2015,07,07,12,21,19.20
2015,07,07,12,22,19.20
2015,07,07,12,23,19.20
2015,07,07,12,24,19.20
2015,07,07,12,25,19.20
2015,07,07,12,26,19.30
2015,07,07,12,27,19.30
2015,07,07,12,28,19.30
2015,07,07,12,29,19.30
2015,07,07,12,30,19.30
2015,07,07,12,31,19.30
2015,07,07,12,32,19.30
2015,07,07,12,33,19.30
2015,07,07,12,34,19.30
2015,07,07,12,35,19.30
2015,07,07,12,36,19.30
2015,07,07,12,37,19.30
2015,07,07,12,38,19.40
2015,07,07,12,39,19.40
2015,07,07,12,40,19.40
2015,07,07,12,41,19.40
2015,07,07,12,42,19.30
2015,07,07,12,43,19.30
2015,07,07,12,44,19.40
2015,07,07,12,45,19.40
2015,07,07,12,46,19.30
2015,07,07,12,47,19.30
2015,07,07,12,48,19.40
2015,07,07,12,49,19.40
2015,07,07,12,50,19.50
2015,07,07,12,51,19.60
2015,07,07,12,52,19.60
2015,07,07,12,53,19.60
2015,07,07,12,54,19.60
2015,07,07,12,55,19.60
2015,07,07,12,56,19.60
2015,07,07,12,57,19.60
2015,07,07,12,58,19.60
2015,07,07,12,59,19.70
2015,07,07,13,00,19.70
2015,07,07,13,01,19.70
2015,07,07,13,02,19.60
2015,07,07,13,03,19.60
2015,07,07,13,04,19.60
2015,07,07,13,05,19.70
2015,07,07,13,06,19.70
2015,07,07,13,07,19.70
2015,07,07,13,08,19.70
2015,07,07,13,09,19.70
2015,07,07,13,10,19.80
2015,07,07,13,11,19.80
2015,07,07,13,12,19.80
2015,07,07,13,13,19.90
2015,07,07,13,14,20.00
2015,07,07,13,15,20.00
2015,07,07,13,16,20.00
2015,07,07,13,17,20.00
2015,07,07,13,18,19.90
2015,07,07,13,19,19.90
2015,07,07,13,20,19.90
2015,07,07,13,21,19.90
2015,07,07,13,22,19.90
2015,07,07,13,23,20.00
2015,07,07,13,24,20.00
2015,07,07,13,25,20.10
2015,07,07,13,26,20.10
2015,07,07,13,27,20.20
2015,07,07,13,28,20.20
2015,07,07,13,29,20.20
2015,07,07,13,30,20.10
2015,07,07,13,31,20.10
2015,07,07,13,32,20.10
2015,07,07,13,33,20.20
2015,07,07,13,34,20.30
2015,07,07,13,35,20.20
2015,07,07,13,36,20.20
2015,07,07,13,37,20.20
2015,07,07,13,38,20.10
2015,07,07,13,39,20.20
2015,07,07,13,40,20.20
2015,07,07,13,41,20.10
2015,07,07,13,42,20.20
2015,07,07,13,43,20.30
2015,07,07,13,44,20.20
2015,07,07,13,45,20.20
2015,07,07,13,46,20.10
2015,07,07,13,47,20.10
2015,07,07,13,48,20.00
2015,07,07,13,49,19.90
2015,07,07,13,50,19.90
2015,07,07,13,51,19.90
2015,07,07,13,52,19.80
2015,07,07,13,53,19.80
2015,07,07,13,54,19.70
2015,07,07,13,55,19.70
2015,07,07,13,56,19.70
2015,07,07,13,57,19.70
2015,07,07,13,58,19.70
2015,07,07,13,59,19.70
2015,07,07,14,00,19.70
2015,07,07,14,01,19.80
2015,07,07,14,02,19.80
2015,07,07,14,03,19.80
2015,07,07,14,04,19.80
2015,07,07,14,05,19.90
2015,07,07,14,06,19.90
2015,07,07,14,07,19.90
2015,07,07,14,08,20.00
2015,07,07,14,09,20.00
2015,07,07,14,10,20.00
2015,07,07,14,11,20.10
2015,07,07,14,12,20.10
2015,07,07,14,13,20.10
2015,07,07,14,14,20.10
2015,07,07,14,15,20.10
2015,07,07,14,16,20.10
2015,07,07,14,17,20.20
2015,07,07,14,18,20.10
2015,07,07,14,19,20.10
2015,07,07,14,20,20.10
2015,07,07,14,21,20.10
2015,07,07,14,22,20.00
2015,07,07,14,23,20.00
2015,07,07,14,24,19.90
2015,07,07,14,25,19.90
2015,07,07,14,26,19.90
2015,07,07,14,27,19.90
2015,07,07,14,28,19.90
2015,07,07,14,29,19.90
2015,07,07,14,30,20.00
2015,07,07,14,31,19.90
2015,07,07,14,32,19.90
2015,07,07,14,33,19.90
2015,07,07,14,34,19.90
2015,07,07,14,35,20.00
2015,07,07,14,36,20.00
2015,07,07,14,37,20.00
2015,07,07,14,38,20.10
2015,07,07,14,39,20.10
2015,07,07,14,40,20.10
2015,07,07,14,41,20.10
2015,07,07,14,42,20.10
2015,07,07,14,43,20.20
2015,07,07,14,44,20.20
2015,07,07,14,45,20.20
2015,07,07,14,46,20.30
2015,07,07,14,47,20.30
2015,07,07,14,48,20.30
2015,07,07,14,49,20.30
2015,07,07,14,50,20.30
2015,07,07,14,51,20.30
2015,07,07,14,52,20.30
2015,07,07,14,53,20.30
2015,07,07,14,54,20.40
2015,07,07,14,55,20.40
2015,07,07,14,56,20.40
2015,07,07,14,57,20.50
2015,07,07,14,58,20.50
2015,07,07,14,59,20.60
2015,07,07,15,00,20.60
2015,07,07,15,01,20.70
2015,07,07,15,02,20.70
2015,07,07,15,03,20.70
2015,07,07,15,04,20.80
2015,07,07,15,05,20.90
2015,07,07,15,06,21.00
2015,07,07,15,07,21.10
2015,07,07,15,08,21.20
2015,07,07,15,09,21.20
2015,07,07,15,10,21.20
2015,07,07,15,11,21.20
2015,07,07,15,12,21.10
2015,07,07,15,13,21.10
2015,07,07,15,14,21.10
2015,07,07,15,15,21.10
2015,07,07,15,16,21.10
2015,07,07,15,17,21.10
2015,07,07,15,18,21.10
2015,07,07,15,19,21.10
2015,07,07,15,20,21.20
2015,07,07,15,21,21.20
2015,07,07,15,22,21.20
2015,07,07,15,23,21.20
2015,07,07,15,24,21.10
2015,07,07,15,25,21.10
2015,07,07,15,26,21.10
2015,07,07,15,27,21.10
2015,07,07,15,28,21.10
2015,07,07,15,29,21.10
2015,07,07,15,30,21.20
2015,07,07,15,31,21.20
2015,07,07,15,32,21.20
2015,07,07,15,33,21.30
2015,07,07,15,34,21.30
2015,07,07,15,35,21.30
2015,07,07,15,36,21.40
2015,07,07,15,37,21.40
2015,07,07,15,38,21.50
2015,07,07,15,39,21.60
2015,07,07,15,40,21.70
2015,07,07,15,41,21.70
2015,07,07,15,42,21.70
2015,07,07,15,43,21.70
2015,07,07,15,44,21.70
2015,07,07,15,45,21.70
2015,07,07,15,46,21.70
2015,07,07,15,47,21.80
2015,07,07,15,48,21.80
2015,07,07,15,49,21.80
2015,07,07,15,50,21.80
2015,07,07,15,51,21.80
2015,07,07,15,52,21.70
2015,07,07,15,53,21.70
2015,07,07,15,54,21.70
2015,07,07,15,55,21.70
2015,07,07,15,56,21.60
2015,07,07,15,57,21.60
2015,07,07,15,58,21.60
2015,07,07,15,59,21.50
2015,07,07,16,00,21.40
2015,07,07,16,01,21.40
2015,07,07,16,02,21.40
2015,07,07,16,03,21.30
2015,07,07,16,04,21.30
2015,07,07,16,05,21.30
2015,07,07,16,06,21.30
2015,07,07,16,07,21.30
2015,07,07,16,08,21.30
2015,07,07,16,09,21.20
2015,07,07,16,10,21.20
2015,07,07,16,11,21.20
2015,07,07,16,12,21.30
2015,07,07,16,13,21.30
2015,07,07,16,14,21.30
2015,07,07,16,15,21.30
2015,07,07,16,16,21.40
2015,07,07,16,17,21.50
2015,07,07,16,18,21.50
2015,07,07,16,19,21.60
2015,07,07,16,20,21.70
2015,07,07,16,21,21.70
2015,07,07,16,22,21.80
2015,07,07,16,23,21.80
2015,07,07,16,24,21.90
2015,07,07,16,25,21.90
2015,07,07,16,26,21.90
2015,07,07,16,27,22.00
2015,07,07,16,28,22.10
2015,07,07,16,29,22.10
2015,07,07,16,30,22.20
2015,07,07,16,31,22.30
2015,07,07,16,32,22.30
2015,07,07,16,33,22.40
2015,07,07,16,34,22.50
2015,07,07,16,35,22.60
2015,07,07,16,36,22.60
2015,07,07,16,37,22.70
2015,07,07,16,38,22.70
2015,07,07,16,39,22.70
2015,07,07,16,40,22.60
2015,07,07,16,41,22.60
2015,07,07,16,42,22.50
2015,07,07,16,43,22.50
2015,07,07,16,44,22.50
2015,07,07,16,45,22.50
2015,07,07,16,46,22.50
2015,07,07,16,47,22.50
2015,07,07,16,48,22.50
2015,07,07,16,49,22.50
2015,07,07,16,50,22.40
2015,07,07,16,51,22.40
2015,07,07,16,52,22.40
2015,07,07,16,53,22.40
2015,07,07,16,54,22.40
2015,07,07,16,55,22.50
2015,07,07,16,56,22.60
2015,07,07,16,57,22.70
2015,07,07,16,58,22.80
2015,07,07,16,59,22.80
2015,07,07,17,00,22.90
2015,07,07,17,01,23.00
2015,07,07,17,02,23.20
2015,07,07,17,03,23.20
2015,07,07,17,04,23.30
2015,07,07,17,05,23.30
2015,07,07,17,06,23.40
2015,07,07,17,07,23.40
2015,07,07,17,08,23.40
2015,07,07,17,09,23.40
2015,07,07,17,10,23.50
2015,07,07,17,11,23.50
2015,07,07,17,12,23.60
2015,07,07,17,13,23.60
2015,07,07,17,14,23.60
2015,07,07,17,15,23.60
2015,07,07,17,16,23.70
2015,07,07,17,17,23.70
2015,07,07,17,18,23.70
2015,07,07,17,19,23.70